DW5244 Weather Reports


Display with metric or nautical units.
time (UTC)temp
F
wind
direction
speed
MPH
gust
MPH
rain 1hr
in
rain 24hr
in
rain mn
in
humidity
%
barometer
mb
20260505101518 63 360 3.0 6.0 0.00 0.00 0.00 40 1010.9
20260505100016 65 360 1.0 5.0 0.00 0.00 0.00 36 1010.8
20260505094515 64 360 2.0 5.0 0.00 0.00 0.00 37 1010.8
20260505093011 65 360 1.0 3.0 0.00 0.00 0.00 35 1010.9
20260505091509 67 360 1.0 3.0 0.00 0.00 0.00 33 1011.0
20260505090006 68 360 2.0 6.0 0.00 0.00 0.00 32 1011.1
20260505084504 68 360 8.0 12.0 0.00 0.00 0.00 32 1011.0
20260505083100 69 360 11.0 13.0 0.00 0.00 0.00 31 1011.1
20260505081604 69 360 10.0 13.0 0.00 0.00 0.00 30 1011.1
20260505080058 69 360 9.0 13.0 0.00 0.00 0.00 30 1011.2
20260505074608 69 360 4.0 9.0 0.00 0.00 0.00 31 1011.3
20260505073054 70 360 6.0 11.0 0.00 0.00 0.00 30 1011.4
20260505071549 70 345 9.0 13.0 0.00 0.00 0.00 29 1011.6
20260505070048 70 350 11.0 15.0 0.00 0.00 0.00 30 1011.5
20260505064545 70 360 5.0 10.0 0.00 0.00 0.00 30 1011.5
20260505063043 71 332 5.0 11.0 0.00 0.00 0.00 28 1011.5
20260505061559 71 319 2.0 8.0 0.00 0.00 0.00 29 1011.8
20260505060034 72 360 4.0 11.0 0.00 0.00 0.00 28 1012.0
20260505054532 72 360 7.0 13.0 0.00 0.00 0.00 28 1012.1
20260505053030 72 333 3.0 6.0 0.00 0.00 0.00 28 1012.1
20260505051529 73 360 5.0 9.0 0.00 0.00 0.00 27 1012.2
20260505041521 75 336 6.0 11.0 0.00 0.00 0.00 26 1012.0
20260505040021 75 340 8.0 11.0 0.00 0.00 0.00 25 1012.0
20260505034521 76 360 7.0 11.0 0.00 0.00 0.00 24 1011.9
20260505033031 77 360 7.0 10.0 0.00 0.00 0.00 23 1011.7
20260505031518 78 340 7.0 11.0 0.00 0.00 0.00 23 1011.6
20260505030017 77 360 9.0 12.0 0.00 0.00 0.00 23 1011.7
20260505024540 77 332 2.0 4.0 0.00 0.00 0.00 24 1011.3
20260505023016 79 330 3.0 6.0 0.00 0.00 0.00 21 1011.3
20260505021533 80 336 4.0 8.0 0.00 0.00 0.00 20 1010.9
20260505020015 81 323 3.0 8.0 0.00 0.00 0.00 20 1010.8
20260505014521 82 360 3.0 5.0 0.00 0.00 0.00 19 1010.7
20260505013013 83 360 4.0 5.0 0.00 0.00 0.00 18 1010.7
20260505011513 84 360 4.0 6.0 0.00 0.00 0.00 18 1010.4
20260505010013 86 349 3.0 9.0 0.00 0.00 0.00 17 1010.8
20260505004521 86 341 5.0 10.0 0.00 0.00 0.00 16 1010.6
20260505003009 87 345 7.0 12.0 0.00 0.00 0.00 16 1010.9
20260505001508 88 337 7.0 13.0 0.00 0.00 0.00 16 1010.9
20260505000008 87 323 9.0 15.0 0.00 0.00 0.00 16 1011.1
20260504234506 88 342 10.0 18.0 0.00 0.00 0.00 17 1011.0
20260504233004 89 327 5.0 15.0 0.00 0.00 0.00 17 1011.3
20260504231503 89 321 10.0 18.0 0.00 0.00 0.00 17 1011.2
20260504230002 90 313 1.0 13.0 0.00 0.00 0.00 17 1011.4
20260504224600 89 314 4.0 18.0 0.00 0.00 0.00 17 1011.6
20260504223104 90 284 11.0 15.0 0.00 0.00 0.00 18 1011.5
20260504221607 89 323 11.0 21.0 0.00 0.00 0.00 18 1011.8
20260504220129 91 286 12.0 17.0 0.00 0.00 0.00 18 1011.8
20260504214554 90 323 8.0 19.0 0.00 0.00 0.00 17 1012.0
20260504213108 90 220 2.0 6.0 0.00 0.00 0.00 20 1012.1
20260504211550 88 281 10.0 17.0 0.00 0.00 0.00 19 1012.6
20260504210052 90 220 11.0 18.0 0.00 0.00 0.00 18 1012.6
20260504204601 90 236 14.0 22.0 0.00 0.00 0.00 17 1012.7
20260504203046 89 265 11.0 24.0 0.00 0.00 0.00 17 1012.9
20260504201547 89 213 11.0 17.0 0.00 0.00 0.00 18 1013.2
20260504200045 90 258 9.0 17.0 0.00 0.00 0.00 18 1013.4
20260504194543 90 290 10.0 18.0 0.00 0.00 0.00 20 1013.7
20260504193037 89 283 9.0 18.0 0.00 0.00 0.00 22 1013.9
20260504191538 88 286 5.0 16.0 0.00 0.00 0.00 23 1014.2
20260504190037 87 257 2.0 9.0 0.00 0.00 0.00 26 1014.6
20260504184534 85 294 2.0 12.0 0.00 0.00 0.00 28 1014.8
20260504183027 86 327 2.0 11.0 0.00 0.00 0.00 28 1015.0
20260504181525 85 342 5.0 13.0 0.00 0.00 0.00 28 1015.2
20260504180025 85 316 4.0 9.0 0.00 0.00 0.00 28 1015.4
20260504174522 84 289 5.0 9.0 0.00 0.00 0.00 28 1015.5
20260504173022 83 282 8.0 11.0 0.00 0.00 0.00 29 1015.6
20260504171520 83 312 4.0 9.0 0.00 0.00 0.00 29 1015.7